Dewpoint
38 40 40 41 42 40 35 32 22 32 40 30 32 28 26 30 27 27 28 27 26 23 24 24 25 24 25 30 22 23 33 35 31 28 33 34 32 32 36 30 29 30 30 29
37 40 40 41 42 39 33 28 23 28 35 28 27 28 27 28 27 27 26 26 26 25 24 24 24 24 23 31 23 27 29 33 28 26 32 33 31 32 33 35 34 31 29 30
37 39 40 40 41 38 32 25 23 22 26 28 23 22 23 23 27 27 29 27 26 22 20 24 22 21 27 22 22 27 36 33 31 28 33 33 33 32 34 35 31 31 32 33
36 38 40 40 40 37 31 31 26 26 19 20 25 25 22 19 20 23 26 25 22 23 24 19 20 20 20 20 23 24 27 25 27 28 27 29 31 31 31 33 34 31 35 34
35 38 40 40 39 36 32 30 21 23 23 24 19 23 23 21 21 23 20 23 22 19 19 19 19 22 20 19 19 20 22 22 21 23 28 32 30 32 32 32 33 35 36 35
35 37 39 39 39 36 31 33 31 25 24 19 17 20 23 23 24 22 26 24 20 17 22 26 24 24 23 23 22 22 23 23 24 23 29 30 29 32 28 30 32 34 33 34
35 37 39 39 38 36 33 35 30 23 15 16 19 23 22 20 22 22 21 22 22 24 25 28 27 27 27 29 30 28 25 23 24 25 29 26 23 23 26 28 27 28 30 28
35 35 38 39 38 37 34 36 30 23 15 15 18 21 21 21 21 21 22 25 26 25 29 24 19 21 30 34 34 32 29 25 27 27 28 28 23 23 21 20 20 24 23 27
35 35 35 38 38 38 33 35 36 28 20 14 20 21 23 17 19 21 23 23 26 32 27 23 19 18 22 21 26 34 32 32 28 29 27 26 26 24 23 24 20 25 25 28
35 35 34 35 37 37 35 34 38 28 25 21 23 17 19 25 25 21 23 24 25 30 23 19 18 19 20 21 23 24 28 27 24 27 27 30 29 28 24 22 23 27 28 29
35 35 35 34 36 34 33 33 37 30 24 23 26 26 24 25 24 19 24 22 28 23 21 20 19 20 20 21 21 26 26 27 26 28 28 28 33 29 29 32 31 26 30 33
36 36 35 34 35 34 33 28 33 35 29 26 30 29 28 26 25 24 25 26 25 24 23 21 21 18 21 21 20 29 27 30 26 28 31 35 36 33 33 32 30 25 28 33
37 37 35 34 35 35 33 30 32 33 29 27 26 26 28 31 30 29 23 24 24 23 31 28 26 23 24 19 20 26 30 30 29 31 34 33 35 35 35 35 27 28 29 33
38 37 36 35 34 35 32 30 32 33 30 26 22 28 28 29 32 31 30 27 29 30 30 27 25 21 24 23 23 23 26 30 32 33 35 36 34 36 33 34 33 28 31 33
38 38 37 35 35 36 35 35 34 34 30 26 25 28 29 29 30 31 31 30 29 28 27 27 24 26 27 27 27 26 32 33 32 33 34 35 32 32 33 31 28 30 31 32
39 38 37 35 35 35 33 31 38 39 34 28 24 25 28 30 32 30 31 31 31 31 27 26 26 26 29 26 23 27 32 32 32 32 30 29 29 33 35 30 30 30 32 32
40 39 37 35 36 33 30 31 37 38 38 31 25 21 25 29 32 32 31 31 30 29 27 26 25 24 31 28 22 24 28 29 29 29 30 32 36 35 35 31 30 31 31 31
40 39 38 36 36 36 33 32 39 40 33 30 24 22 23 31 30 31 32 31 31 31 29 29 29 30 31 27 26 31 32 34 32 31 33 32 34 30 30 30 29 29 29 30
40 39 36 35 34 32 34 39 40 37 31 25 24 22 21 27 29 34 35 34 28 31 30 29 32 26 26 27 27 30 32 33 32 34 34 31 31 33 30 30 29 28 29 30
38 35 32 30 32 37 39 36 33 30 29 28 23 25 22 26 25 24 30 31 27 25 29 34 30 27 28 35 37 38 38 38 37 36 34 32 31 32 37 32 30 30 29 30
36 33 32 31 36 36 33 30 28 28 26 27 25 25 24 28 25 24 25 24 27 24 29 29 29 30 33 37 38 38 37 39 39 39 38 35 32 34 36 38 32 32 32 31
35 34 36 34 30 30 28 27 29 27 23 25 26 27 28 28 30 27 27 27 29 24 34 29 27 32 35 37 38 36 37 39 39 39 37 33 32 34 37 39 38 33 33 35
35 30 28 28 28 23 23 20 22 23 26 27 29 27 29 30 32 28 29 26 24 29 29 27 30 34 36 37 38 37 36 39 39 37 36 36 37 38 39 38 39 38 35 35
31 26 18 21 21 20 20 20 21 25 26 25 27 27 27 29 28 28 27 25 27 25 25 27 31 36 36 38 38 38 33 37 38 38 40 41 40 40 42 43 42 40 37 39
28 23 16 19 19 24 27 27 27 26 27 27 26 27 27 27 27 28 26 23 22 23 23 31 36 38 38 38 38 36 34 33 36 38 38 39 39 40 42 42 41 41 41 39
26 24 21 21 21 23 25 23 21 29 29 29 27 25 25 24 24 24 23 21 19 25 31 38 37 37 38 38 36 36 36 34 33 36 38 38 39 38 39 41 42 42 41 38
28 25 24 23 24 23 25 25 24 30 20 18 26 25 21 26 22 22 22 20 21 30 32 38 36 35 35 37 37 36 34 36 34 33 35 37 38 38 38 38 39 40 42 41
Wind_Speed
18 21 23 25 26 25 6 3 5 18 16 9 7 8 5 2 4 4 3 2 3 5 8 5 4 5 5 11 21 12 5 6 8 13 1 3 4 3 4 4 1 3 4 5
18 20 23 25 24 19 3 4 4 10 9 8 11 9 8 6 2 6 3 3 5 7 6 5 5 6 8 9 19 12 9 3 8 5 5 2 3 3 1 1 1 8 4 1
18 20 23 25 23 14 3 3 3 9 13 10 12 10 6 4 6 4 3 3 2 10 5 2 8 12 6 20 16 14 6 5 6 12 15 16 13 13 7 5 4 2 8 15
17 20 23 24 20 11 2 6 5 2 5 9 10 5 3 4 2 3 5 2 8 7 5 15 4 8 17 16 2 6 8 9 13 17 20 20 23 22 15 15 11 8 4 4
18 19 21 25 23 9 7 4 4 5 8 3 6 4 3 3 2 3 2 4 9 8 10 13 25 20 18 11 8 8 10 9 16 17 14 12 20 17 18 21 18 20 19 21
17 19 23 25 25 4 5 4 3 1 2 4 1 3 2 1 4 2 1 6 15 13 10 18 25 27 28 26 24 22 13 7 8 8 8 20 8 9 10 11 15 14 14 10
16 17 20 24 26 16 7 4 1 3 5 3 3 4 0 2 2 4 6 9 8 10 23 28 23 24 23 19 20 17 10 8 7 9 15 3 3 7 4 5 6 7 14 12
13 15 18 20 21 18 14 5 2 3 6 5 5 4 2 4 4 7 6 4 9 16 16 10 10 4 4 6 2 12 19 8 5 5 9 11 4 11 7 5 8 6 6 3
12 14 16 17 18 12 11 12 5 4 6 3 5 3 1 3 3 2 2 6 10 7 4 5 6 4 7 4 8 5 12 14 7 5 5 1 8 15 6 3 3 12 8 2
11 12 13 13 14 13 9 8 8 3 5 4 4 1 1 1 2 4 2 6 4 5 6 5 4 4 6 4 8 8 2 5 11 7 5 7 9 17 5 7 9 15 10 2
9 10 11 11 11 12 6 7 9 5 2 4 5 4 4 2 2 3 4 5 1 4 3 4 4 4 4 5 9 5 4 3 5 7 6 4 19 13 14 14 11 10 9 6
9 9 10 10 8 7 6 5 5 5 1 2 1 5 8 8 6 4 1 3 2 3 4 3 4 6 4 6 6 3 4 3 7 5 4 11 25 11 15 13 10 9 7 8
9 9 9 9 7 7 7 6 6 2 2 2 2 3 2 7 14 11 4 1 2 3 4 4 3 5 4 7 6 4 3 13 7 8 6 15 16 13 18 19 13 11 5 9
10 9 9 7 6 5 3 4 5 3 2 1 4 1 6 3 7 14 16 4 2 5 5 4 5 6 4 6 11 20 15 9 6 13 16 20 10 26 28 25 14 9 3 10
11 9 8 6 4 4 1 2 4 4 3 4 4 10 2 2 9 10 11 12 12 7 4 5 6 5 9 11 13 14 5 5 5 5 23 13 26 31 30 17 11 3 7 14
12 10 9 6 4 1 1 1 3 2 3 2 2 3 2 1 2 8 10 10 8 5 4 5 5 15 7 6 10 8 10 14 20 19 27 26 31 29 16 17 7 1 9 12
12 10 9 6 3 1 3 4 4 4 1 3 4 2 2 1 2 4 5 6 4 6 5 7 13 15 5 6 21 16 19 19 19 20 20 19 14 26 19 8 4 9 12 12
13 10 9 6 3 1 2 2 7 3 2 1 4 3 2 2 2 2 5 4 5 7 5 4 9 5 6 8 15 12 16 18 21 10 9 20 23 12 4 2 6 10 12 14
14 11 8 3 1 1 3 3 2 5 3 4 2 3 3 2 3 2 3 6 5 4 6 5 3 5 8 14 15 18 22 19 25 26 24 21 15 9 4 2 3 9 10 12
16 4 1 1 2 4 8 2 1 2 3 2 2 5 5 4 3 3 2 4 4 4 4 2 4 8 14 18 19 26 28 25 21 21 22 11 6 9 9 5 1 4 8 10
3 4 2 3 1 3 2 2 2 3 3 4 3 6 8 0 4 5 2 4 2 4 2 3 3 4 11 24 27 25 19 17 16 19 21 19 16 12 9 8 4 4 9 10
6 6 3 2 2 1 2 2 2 3 2 4 3 3 5 3 3 4 2 3 3 4 2 3 4 9 24 28 27 27 20 16 11 11 13 13 13 10 7 5 3 4 8 10
5 2 2 2 2 3 4 5 3 2 3 3 3 3 3 4 4 5 2 2 5 9 3 4 2 17 24 30 28 27 22 16 9 3 3 5 7 7 6 5 3 1 7 11
3 5 4 5 4 5 4 4 1 3 2 5 5 5 4 2 3 2 3 3 4 3 3 4 9 16 26 28 25 23 22 20 17 14 11 5 3 3 2 3 3 1 5 9
5 5 5 8 4 3 3 1 2 2 6 7 5 5 4 4 4 3 3 3 4 4 4 6 11 19 18 25 26 24 21 19 17 15 13 12 11 9 7 4 2 3 2 6
5 4 4 4 5 8 8 7 5 1 2 3 4 4 4 6 3 3 5 3 4 1 4 5 8 17 18 24 26 22 20 18 17 16 14 12 11 10 8 9 8 5 4 6
7 6 9 9 3 5 5 6 5 3 3 4 4 4 6 1 4 4 4 4 5 3 1 3 2 5 11 23 26 21 21 15 16 16 17 16 14 13 14 14 12 9 5 4
Wind_Direction
15 10 5 360 356 349 20 12 52 352 339 48 53 72 101 101 66 61 70 38 43 359 340 330 342 335 319 6 350 336 41 295 281 282 29 330 307 305 177 255 194 225 283 287
19 10 6 1 0 7 1 60 13 357 339 77 75 104 94 74 73 37 29 39 11 357 332 325 316 327 338 358 341 349 340 310 306 236 169 170 301 359 353 127 130 221 246 261
20 13 8 3 1 3 26 85 61 37 49 55 96 114 80 106 46 64 15 16 350 344 332 293 296 302 318 332 320 309 253 272 266 308 314 309 293 281 266 210 240 238 240 276
22 18 10 3 1 8 48 35 70 4 51 55 81 83 89 86 66 20 5 164 29 360 316 316 265 316 313 319 312 320 352 277 295 297 291 279 278 274 267 222 245 223 271 250
28 21 12 9 8 6 69 95 118 86 91 78 85 66 74 60 56 338 26 333 334 318 293 288 293 297 297 291 293 334 341 283 314 298 292 288 290 274 258 244 249 244 271 291
34 27 22 17 16 352 84 62 88 124 104 97 76 54 96 65 340 103 340 335 318 315 332 308 285 279 275 266 273 285 293 285 329 274 302 314 292 280 275 260 234 249 259 245
44 38 32 29 28 40 83 80 95 102 107 108 101 157 203 284 336 291 298 310 296 329 318 300 283 262 258 258 262 240 239 246 272 285 307 231 356 6 313 297 289 249 262 282
56 46 41 39 39 40 69 56 46 81 112 113 149 179 219 277 281 278 298 325 326 314 308 310 330 329 182 115 251 219 212 232 269 267 298 286 73 23 8 353 72 28 339 28
73 57 48 45 41 39 70 48 26 67 126 136 124 157 183 311 321 293 315 335 332 327 301 311 340 349 327 334 357 104 182 244 308 314 274 245 40 6 352 243 106 9 357 51
88 70 54 50 49 46 71 57 16 54 102 144 181 160 215 251 296 292 330 341 331 332 330 323 339 319 330 318 327 330 202 204 243 272 282 286 350 344 328 9 348 346 344 274
104 88 70 58 53 42 63 68 33 20 81 147 201 199 209 215 260 309 360 283 119 346 356 330 345 305 345 296 302 298 290 297 204 198 243 245 12 349 6 332 321 350 14 118
124 106 89 72 61 37 14 82 48 16 17 34 221 252 265 259 269 285 254 349 333 0 311 332 305 291 293 314 299 223 280 13 293 265 262 321 321 328 359 341 315 348 10 141
136 120 104 84 80 60 31 54 25 31 8 215 204 184 157 226 230 226 259 204 284 258 342 307 274 274 280 293 286 292 268 292 238 312 230 316 314 10 355 346 327 335 324 162
143 130 116 101 89 88 43 43 33 5 21 8 112 203 294 260 206 206 219 242 226 296 295 280 272 281 287 282 296 292 274 279 269 267 277 328 191 341 341 329 323 320 255 164
144 137 125 117 103 113 99 38 26 9 7 335 316 305 163 268 215 213 219 229 241 270 266 245 265 282 279 269 271 262 224 244 250 287 325 311 306 316 323 329 328 320 167 150
149 144 136 131 127 186 217 83 83 91 194 345 340 6 229 297 147 199 209 217 220 226 244 252 244 243 270 282 286 256 263 276 269 273 294 298 300 298 318 329 336 133 159 150
153 148 139 131 125 2 18 27 55 104 139 358 305 283 142 346 165 187 204 210 220 235 253 240 262 266 226 261 262 264 288 291 282 286 300 301 329 316 318 343 58 113 123 125
153 146 133 128 143 172 111 126 190 14 20 295 330 309 294 178 244 230 173 173 205 220 246 257 253 255 213 258 252 264 274 304 302 292 294 301 311 332 354 41 126 124 121 126
145 135 130 133 163 116 75 25 142 199 283 326 317 326 342 327 269 295 205 171 233 237 226 241 246 235 234 257 305 303 299 293 298 302 302 300 300 360 16 47 117 124 134 137
134 149 184 71 128 84 137 336 113 128 203 247 261 313 274 321 305 301 259 197 260 274 229 219 240 260 288 307 298 293 289 284 284 281 283 290 290 346 0 0 111 140 150 145
176 173 156 91 285 191 183 205 219 178 234 203 245 261 284 208 271 299 278 306 284 280 22 267 257 255 318 321 312 327 324 302 277 257 261 267 275 295 324 354 14 146 152 157
149 118 106 170 176 134 231 213 163 219 284 175 230 264 227 255 248 271 236 282 308 275 341 275 271 342 325 324 331 333 344 337 301 247 240 245 253 262 285 314 3 188 167 160
98 102 95 184 167 196 217 194 202 219 205 212 240 279 246 203 225 265 283 270 252 316 250 273 14 328 332 327 333 346 0 13 17 3 245 249 254 265 260 279 336 202 184 177
152 168 190 207 188 226 201 218 69 58 276 307 306 275 249 224 237 249 248 266 291 269 274 344 316 325 339 326 337 351 0 11 20 31 42 23 320 301 294 271 278 203 208 197
171 176 205 211 207 186 166 174 268 271 289 288 288 257 247 243 239 210 287 256 256 248 314 336 347 335 333 320 345 351 359 8 18 24 32 34 25 21 22 28 318 258 228 198
170 213 187 197 199 215 212 224 258 324 308 261 241 265 245 232 228 174 222 256 248 70 30 63 31 13 354 329 335 347 351 1 15 24 29 37 41 36 33 45 34 357 276 236
175 214 214 201 255 191 171 184 148 134 309 334 311 262 234 268 228 201 210 228 313 302 197 155 352 56 360 329 331 344 347 350 5 16 20 19 24 34 35 28 15 4 339 290